Date,TemperatureHighF,TemperatureAvgF,TemperatureLowF,DewpointHighF,DewpointAvgF,DewpointLowF,HumidityHigh,HumidityAvg,HumidityLow,PressureMaxIn,PressureMinIn,WindSpeedMaxMPH,WindSpeedAvgMPH,GustSpeedMaxMPH,PrecipitationSumIn
2013-1-1,34,34,34,-1,-1,-1,22,22,22,30.06,29.88,1,1,1,0.00
2013-1-3,62,50,39,18,10,4,38,20,16,30.44,30.33,0,0,0,0.00
2013-1-4,51,46,42,10,7,4,21,19,19,30.56,30.36,0,0,0,0.00
2013-1-5,49,45,43,24,17,6,43,33,20,30.42,30.27,0,0,0,0.00
2013-1-6,66,50,37,35,19,4,65,33,15,30.36,30.24,0,0,0,0.00
2013-1-7,66,48,36,21,14,7,40,26,15,30.39,30.15,0,0,0,0.00
2013-1-8,64,58,52,48,30,13,58,35,21,30.18,30.00,0,0,0,0.00
2013-1-9,68,64,62,64,53,37,86,69,37,30.18,29.97,0,0,0,0.00
2013-1-10,66,65,65,61,60,60,84,84,84,30.09,30.06,0,0,0,0.00
2013-1-12,77,73,64,59,40,33,84,31,21,30.09,29.74,0,0,0,0.00
2013-1-13,73,54,46,41,25,18,38,34,30,30.15,29.74,0,0,0,0.00
2013-1-14,47,42,39,22,15,10,39,33,28,30.27,30.09,14,4,14,0.00
2013-1-15,41,38,36,16,15,11,41,38,29,30.18,30.00,10,5,10,0.00
2013-1-16,55,39,32,15,11,1,41,33,18,30.27,30.12,6,5,6,0.00
2013-1-17,66,45,29,17,10,1,40,25,15,30.50,30.27,5,5,6,0.00
2013-1-18,68,45,30,20,9,-3,39,24,15,30.59,30.42,5,5,6,0.00
2013-1-19,71,48,30,23,12,0,38,25,14,30.42,30.21,5,3,6,0.00
2013-1-20,77,54,35,30,17,12,39,26,13,30.30,30.12,0,0,1,0.00
2013-1-21,78,54,39,32,18,10,39,27,13,30.27,30.12,5,0,5,0.00
2013-1-22,74,53,40,21,16,9,37,24,13,30.42,30.24,8,1,8,0.00
2013-1-23,76,57,40,33,21,16,39,27,13,30.42,30.27,9,2,9,0.00
2013-1-24,74,62,50,48,30,23,78,31,16,30.39,30.21,0,0,0,0.00
2013-1-25,80,66,55,56,30,19,78,30,12,30.27,30.09,6,2,6,0.00
2013-1-26,80,64,54,48,28,18,45,29,12,30.27,30.12,7,0,7,0.00
2013-1-27,78,67,56,38,30,23,44,27,15,30.24,30.09,12,2,12,0.00
2013-1-28,77,71,66,40,35,32,34,28,20,30.21,30.00,8,3,8,0.00
2013-1-29,79,72,69,42,40,33,35,31,20,30.06,29.65,9,6,9,0.00
2013-1-30,72,54,36,41,16,-1,48,23,16,30.27,29.68,29,13,29,0.00
2013-1-31,68,49,31,23,11,2,37,22,15,30.36,30.24,12,12,12,0.00
2013-2-1,77,55,43,23,14,6,37,21,13,30.44,30.30,12,12,12,0.00
2013-2-2,78,58,42,31,20,16,40,26,13,30.33,30.18,12,12,12,0.00
2013-2-3,78,59,45,34,20,8,45,25,13,30.36,30.06,12,12,12,0.00
2013-2-4,67,58,44,40,24,13,44,28,20,30.09,29.88,12,12,12,0.00
2013-2-5,81,68,58,40,30,20,46,26,13,30.00,29.91,12,12,12,0.00
2013-2-6,67,62,57,53,40,30,80,47,28,30.09,29.88,12,12,12,0.00
2013-2-7,78,64,58,38,31,20,44,31,13,30.03,29.88,12,12,12,0.00
2013-2-8,75,61,50,55,30,15,81,35,13,30.18,29.97,12,12,12,0.00
2013-2-9,68,59,48,36,28,23,37,31,22,30.21,29.94,13,5,13,0.00
2013-2-10,77,68,63,46,38,29,42,34,22,29.97,29.83,20,5,20,0.00
2013-2-11,64,56,52,37,31,25,43,39,27,30.18,29.94,15,5,15,0.00
2013-2-12,68,59,54,61,39,25,87,51,29,30.03,29.74,7,4,7,0.00
2013-2-13,67,53,39,28,16,7,36,23,15,30.15,29.94,3,2,3,0.00
2013-2-14,72,54,37,20,14,6,35,21,14,30.21,30.06,3,0,3,0.00
2013-2-15,75,54,36,30,15,8,39,23,13,30.30,30.12,0,0,0,0.00
2013-2-16,62,48,34,16,7,-3,25,19,16,30.44,30.27,0,0,0,0.00
2013-2-17,72,54,34,21,14,2,35,22,14,30.30,30.12,0,0,0,0.00
2013-2-18,71,64,58,43,28,19,44,27,17,30.12,29.83,0,0,0,0.00
2013-2-19,72,58,47,32,17,9,36,21,14,30.30,30.03,0,0,0,0.00
2013-2-20,61,55,49,15,12,8,19,18,16,30.27,29.94,18,2,18,0.00
2013-2-21,73,64,56,45,33,12,40,32,17,29.94,29.68,20,7,20,0.00
2013-2-22,67,61,57,36,23,15,39,24,15,30.00,29.83,12,3,12,0.00
2013-2-23,78,59,49,26,19,12,36,22,13,30.03,29.88,8,1,8,0.00
2013-2-24,73,58,40,34,20,15,39,24,14,29.97,29.68,12,4,12,0.00
2013-2-25,77,65,49,62,32,8,78,32,13,29.68,29.38,28,7,28,0.00
2013-2-26,68,53,44,19,11,5,25,18,15,29.94,29.62,28,9,28,0.00
2013-2-27,76,56,41,27,15,2,37,21,13,30.12,29.91,5,1,5,0.00
2013-2-28,60,46,37,15,7,-1,26,20,17,30.27,30.09,5,2,5,0.00
2013-3-1,67,49,35,18,9,-1,30,21,15,30.27,30.12,8,4,8,0.00
2013-3-2,57,43,31,13,6,-4,30,21,17,30.33,30.18,21,5,21,0.00
2013-3-3,70,48,28,20,10,-3,33,22,15,30.33,30.09,11,2,11,0.00
2013-3-4,76,64,52,33,24,18,31,22,13,30.09,29.83,28,7,28,0.00
2013-3-5,78,65,47,38,24,6,36,22,13,30.33,29.88,20,5,20,0.00
2013-3-6,75,52,32,21,8,-4,23,18,13,30.44,30.24,14,3,14,0.00
2013-3-7,72,52,36,20,12,3,30,20,14,30.39,30.24,0,0,0,0.00
2013-3-8,76,58,39,28,17,10,38,21,13,30.33,30.12,13,4,13,0.00
2013-3-9,75,64,54,36,29,11,36,28,16,30.15,29.85,16,6,16,0.00
2013-3-10,67,61,55,37,30,11,36,31,17,30.03,29.83,15,3,15,0.00
2013-3-11,66,53,38,17,10,0,21,18,15,30.15,29.97,15,6,15,0.00
2013-3-12,78,54,33,23,14,4,35,21,13,30.30,30.12,13,2,13,0.00
2013-3-13,80,56,38,24,15,6,35,21,12,30.50,30.30,15,3,15,0.00
2013-3-14,44,41,40,9,6,4,26,23,20,30.42,30.42,0,0,0,0.00
2013-3-15,80,68,43,33,24,12,36,20,12,30.36,30.09,14,3,14,0.00
2013-3-16,82,68,58,40,27,18,41,25,12,30.09,29.91,16,3,16,0.00
2013-3-17,79,69,62,43,34,25,40,28,15,29.94,29.77,7,4,7,0.00
2013-3-18,88,74,67,51,37,22,54,29,11,29.94,29.71,6,2,6,0.00
2013-3-19,69,68,65,38,30,20,34,25,17,29.97,29.88,11,5,11,0.00
2013-3-20,79,64,48,27,19,8,34,18,12,30.27,30.06,14,6,14,0.00
2013-3-21,74,63,47,26,17,8,24,17,13,30.12,29.77,16,6,16,0.00
2013-3-22,85,71,61,42,34,24,36,27,13,29.83,29.68,13,4,13,0.00
2013-3-23,79,71,68,50,42,33,51,35,20,29.80,29.53,6,2,6,0.00
2013-3-24,68,61,42,40,21,2,36,23,15,30.15,29.62,20,6,20,0.00
2013-3-25,68,49,35,19,8,-1,29,19,15,30.39,30.15,15,4,15,0.00
2013-3-26,67,48,30,18,6,-7,23,18,15,30.53,30.33,10,0,10,0.00
2013-3-27,73,52,32,21,11,-1,32,20,14,30.48,30.24,4,2,4,0.00
2013-3-28,78,59,41,30,19,7,35,22,13,30.42,30.24,4,4,4,0.00
2013-3-29,81,65,53,39,27,18,45,26,12,30.33,30.15,4,4,4,0.00
2013-3-30,81,67,58,44,30,20,43,26,12,30.21,30.00,4,4,4,0.00
2013-3-31,84,66,58,63,37,19,83,38,13,30.03,29.88,4,4,4,0.00
2013-4-1,86,64,58,46,33,12,62,37,11,30.15,29.94,4,4,4,0.00
2013-4-2,81,66,56,36,28,20,40,26,12,30.12,29.88,18,5,18,0.00
2013-4-3,67,56,49,41,27,20,48,33,24,30.12,29.83,7,4,7,0.00
2013-4-4,55,50,48,26,21,15,42,32,23,30.21,30.06,10,4,10,0.00
2013-4-5,82,61,44,26,20,14,42,22,12,30.30,30.09,13,3,13,0.00
2013-4-6,77,62,49,38,24,17,42,26,13,30.21,30.00,15,3,15,0.00
2013-4-7,82,70,60,37,30,20,39,25,12,30.09,29.91,19,4,19,0.00
2013-4-8,84,73,68,40,33,22,35,24,12,29.94,29.83,17,6,17,0.00
2013-4-9,82,74,68,46,39,34,45,29,20,29.91,29.80,24,7,24,0.00
2013-4-10,75,74,74,42,42,41,31,31,30,29.85,29.80,10,6,10,0.00
2013-4-11,70,55,50,20,17,11,31,23,14,29.88,29.80,10,2,6,0.00
2013-4-12,86,64,45,35,22,13,41,22,11,30.09,29.88,12,2,12,0.00
2013-4-13,82,66,49,35,23,18,38,21,12,30.06,29.80,16,4,16,0.00
2013-4-14,88,70,60,39,30,19,41,24,10,29.85,29.71,18,2,18,0.00
2013-4-15,90,75,63,47,37,28,50,28,12,29.91,29.77,12,2,12,0.00
2013-4-16,86,77,74,48,42,36,39,29,19,30.03,29.85,13,4,13,0.00
2013-4-17,86,78,74,44,41,36,33,27,18,30.03,29.83,15,5,15,0.00
2013-4-18,84,71,53,45,37,20,37,29,20,30.03,29.68,7,4,7,0.00
2013-4-19,72,56,44,20,14,6,28,19,14,30.27,30.03,4,4,6,0.00
2013-4-20,77,56,37,24,16,10,38,22,13,30.33,30.12,6,4,6,0.00
2013-4-21,81,62,44,27,20,13,39,22,12,30.27,30.06,6,4,6,0.00
2013-4-22,85,66,47,34,24,18,37,23,11,30.18,29.94,6,4,6,0.00
2013-4-23,86,72,57,47,34,26,45,27,13,30.06,29.91,6,4,6,0.00
2013-4-24,74,67,56,43,24,15,34,21,14,30.24,29.94,4,1,6,0.00
2013-4-25,78,64,52,23,19,14,27,18,13,30.42,30.21,0,0,0,0.00
2013-4-26,83,70,60,43,26,16,36,20,14,30.27,30.12,0,0,0,0.00
2013-4-27,86,74,68,56,39,26,58,30,13,30.18,29.97,0,0,0,0.00
2013-4-28,87,72,63,51,36,23,56,29,13,30.09,29.88,0,0,0,0.00
2013-4-29,85,70,59,60,35,22,85,32,11,30.00,29.85,24,3,24,0.00
2013-4-30,86,72,65,53,39,24,56,32,13,29.91,29.77,15,2,15,0.00
2013-5-1,89,74,66,60,39,23,75,32,11,29.94,29.83,8,1,8,0.00
2013-5-2,82,68,56,47,34,24,47,30,14,30.09,29.88,10,2,11,0.00
2013-5-3,71,56,44,24,16,6,30,22,14,30.18,30.06,16,9,16,0.00
2013-5-4,79,61,40,31,20,12,37,22,12,30.12,29.83,10,3,10,0.00
2013-5-5,75,60,45,28,18,10,33,21,13,30.09,29.94,3,3,6,0.00
2013-5-6,86,64,45,30,21,15,38,21,11,30.15,29.94,6,3,6,0.00
2013-5-7,90,70,56,39,27,18,36,23,10,30.12,29.97,6,2,6,0.00
2013-5-8,87,72,56,41,30,20,38,23,11,30.15,30.00,3,2,6,0.00
2013-5-9,80,73,68,46,40,34,38,31,21,30.09,29.85,6,2,6,0.00
2013-5-10,84,71,65,64,40,24,90,38,14,30.09,29.85,6,2,6,0.00
2013-5-11,90,75,66,67,40,22,87,35,12,30.09,29.94,6,2,6,0.00
2013-5-12,90,72,60,44,29,16,43,23,11,30.21,30.06,6,2,6,0.00
2013-5-13,87,68,51,35,24,17,38,21,11,30.36,30.18,6,2,6,0.00
2013-5-14,89,72,56,41,28,18,37,22,11,30.30,30.12,6,3,6,0.00
2013-5-15,85,72,63,45,33,25,39,25,13,30.18,29.94,9,3,9,0.00
2013-5-16,71,71,70,40,40,39,33,32,32,29.97,29.94,0,0,2,0.00
2013-5-17,90,87,82,37,32,28,19,14,12,29.97,29.91,2,2,6,0.00
2013-5-18,90,87,76,44,33,30,31,15,12,30.00,29.97,5,2,5,0.00
2013-5-21,90,90,90,31,31,31,12,12,12,29.97,29.97,2,2,5,0.00
2013-5-24,90,90,90,31,31,31,12,12,12,29.97,29.97,2,2,5,0.00
2013-5-25,90,90,90,31,31,31,12,12,12,30.00,30.00,5,5,0,0.00
2013-5-26,95,81,70,57,36,28,43,22,11,30.18,30.00,5,5,0,0.00
2013-5-27,92,81,70,44,35,28,38,22,12,30.12,29.94,5,5,5,0.00
2013-5-28,92,82,74,45,36,29,34,21,12,30.03,29.88,5,5,0,0.00
2013-5-29,92,82,74,48,37,29,39,22,12,29.97,29.83,5,5,0,0.00
2013-5-30,93,83,77,49,40,30,37,23,11,29.94,29.83,5,5,0,0.00
2013-5-31,93,83,79,52,44,35,38,26,14,29.97,29.83,5,5,0,0.00
2013-6-1,95,85,79,53,42,30,40,25,11,29.91,29.83,5,5,0,0.00
2013-6-2,79,77,71,64,47,42,76,36,26,30.03,29.91,5,5,5,0.00
2013-6-3,79,79,79,42,42,42,26,26,26,29.97,29.97,5,5,5,0.00
2013-6-4,79,79,79,42,42,42,26,26,26,29.97,29.97,5,5,0,0.00
2013-6-5,79,79,79,42,42,42,26,26,26,29.97,29.97,5,5,5,0.00
2013-6-6,79,79,79,42,42,42,26,26,26,29.97,29.97,5,5,5,0.00
2013-6-12,79,75,74,47,46,45,37,36,31,30.03,29.85,3,1,3,0.00
2013-6-13,100,86,79,59,40,29,42,22,10,30.09,29.88,0,0,0,0.00
2013-6-14,104,88,75,73,39,31,77,21,9,29.97,29.83,0,0,0,0.00
2013-6-15,102,86,75,49,41,31,40,25,10,30.03,29.88,4,0,4,0.00
2013-6-16,99,86,77,59,41,28,50,24,10,30.09,29.95,1,1,1,0.00
2013-6-17,98,85,75,59,41,28,52,24,11,30.03,29.89,1,1,1,0.00
2013-6-18,97,83,74,72,45,27,88,32,11,30.03,29.86,1,1,1,0.00
2013-6-19,76,75,74,73,72,70,90,89,84,29.98,29.98,1,1,1,0.00
2013-6-24,98,84,76,70,43,30,77,28,11,30.12,30.01,4,4,4,0.00
2013-6-25,98,85,74,66,41,30,73,25,11,30.09,29.95,4,4,4,0.00
2013-6-26,80,80,78,55,51,48,42,36,34,29.98,29.95,4,4,4,0.00
2013-7-1,96,81,65,43,34,25,36,21,11,29.95,29.83,8,2,8,0.00
2013-7-2,99,82,67,46,36,23,46,22,10,30.07,29.89,12,2,12,0.00
2013-7-3,99,81,67,43,33,21,37,20,10,30.07,29.89,10,4,10,0.00
2013-7-4,99,82,67,45,36,27,43,22,10,30.03,29.89,3,0,3,0.00
2013-7-5,101,82,0,48,38,28,45,22,10,30.03,29.92,13,3,13,0.00
2013-7-6,94,84,75,48,40,30,39,24,11,30.01,29.86,6,4,6,0.00
2013-7-7,90,81,78,59,50,39,51,35,17,30.07,29.89,5,5,5,0.00
2013-7-8,102,87,76,75,44,30,89,26,10,30.21,30.03,6,6,6,0.00
2013-7-9,100,88,75,57,42,30,49,24,10,30.15,29.95,6,6,6,0.00
2013-7-10,93,85,78,48,37,30,34,20,12,29.98,29.95,6,6,6,0.00
2013-7-11,84,77,0,57,44,36,46,29,19,30.03,29.89,6,3,6,0.00
2013-7-12,106,87,75,57,38,28,49,20,9,29.98,29.83,0,0,0,0.00
2013-7-13,103,86,74,55,37,23,50,21,9,30.01,29.83,0,0,0,0.00
2013-7-14,80,80,80,23,23,23,12,12,12,30.01,29.89,0,0,0,0.00
2013-7-15,80,80,80,23,23,23,12,12,12,30.09,29.92,0,0,0,0.00
2013-7-16,80,80,80,23,23,23,12,12,12,30.15,30.03,0,0,0,0.00
2013-7-17,80,80,80,23,23,23,12,12,12,30.21,30.07,0,0,0,0.00
2013-7-18,80,80,80,23,23,23,12,12,12,30.18,29.95,0,0,0,0.00
2013-7-19,80,80,80,23,23,23,12,12,12,30.09,29.95,0,0,0,0.00
2013-7-20,80,80,80,23,23,23,12,12,12,30.03,29.86,0,0,0,0.00
2013-7-21,91,81,78,54,31,23,41,17,12,30.03,29.95,0,0,0,0.00
2013-7-22,96,87,78,77,48,32,85,32,11,30.07,29.95,0,0,0,0.00
2013-7-23,95,85,79,77,51,30,88,38,11,30.09,29.89,0,0,0,0.00
2013-7-24,96,86,79,54,44,30,42,27,11,30.03,29.86,0,0,0,0.00
2013-7-25,104,88,79,75,46,30,85,28,9,30.07,29.95,6,0,6,0.00
2013-7-26,101,87,76,73,43,30,83,25,10,30.09,29.89,10,2,10,0.00
2013-7-27,99,85,76,54,44,30,38,26,11,29.98,29.83,20,3,20,0.00
2013-7-28,95,82,76,55,46,36,43,30,14,30.03,29.92,0,0,0,0.00
2013-7-29,101,86,74,75,46,28,88,33,10,30.09,30.01,0,0,0,0.00
2013-7-30,100,85,72,73,44,28,88,30,10,30.18,30.03,0,0,0,0.00
2013-7-31,102,86,74,70,42,30,83,26,10,30.12,29.95,0,0,0,0.00
2013-8-1,105,89,77,73,42,30,84,24,9,30.03,29.86,0,0,0,0.00
2013-8-2,104,89,77,73,42,30,81,25,9,30.01,29.89,0,0,0,0.00
2013-8-3,104,87,0,61,40,30,57,21,9,30.12,29.95,0,0,0,0.00
2013-8-4,104,85,79,57,46,32,41,27,9,30.15,29.98,0,0,0,0.00
2013-8-5,101,88,78,77,46,30,88,28,10,30.09,29.92,12,2,13,0.00
2013-8-6,101,88,77,70,46,30,78,29,10,30.01,29.86,13,2,13,0.00
2013-8-7,103,88,78,79,48,30,88,33,9,29.98,29.83,11,2,14,0.00
2013-8-8,102,87,75,75,48,28,91,35,10,29.98,29.83,10,1,10,0.00
2013-8-9,105,87,75,73,48,30,83,33,9,29.98,29.83,16,1,16,0.00
2013-8-10,100,82,77,77,57,30,90,49,10,30.09,29.95,17,1,17,0.00
2013-8-11,99,79,0,79,58,30,92,51,10,30.12,30.01,14,1,14,0.00
2013-8-12,96,85,77,77,52,30,90,40,11,30.12,29.98,11,1,11,0.00
2013-8-13,101,88,79,77,47,30,87,32,10,30.07,29.89,15,3,15,0.00
2013-8-14,81,64,0,68,52,48,74,35,31,29.98,29.95,8,1,8,0.00
2013-8-15,85,80,72,70,49,37,78,41,19,30.03,29.89,6,1,6,0.00
2013-8-16,83,83,83,37,37,37,19,19,19,30.03,29.89,7,1,7,0.00
2013-8-17,100,85,73,37,34,21,24,16,10,30.07,29.89,9,1,9,0.00
2013-8-18,95,82,70,55,38,23,50,25,11,30.03,29.95,7,2,7,0.00
2013-8-19,100,84,70,63,40,25,77,26,10,30.07,29.89,10,2,10,0.00
2013-8-20,85,77,72,73,54,43,91,47,22,30.07,29.95,8,1,8,0.00
2013-8-21,102,84,73,75,49,28,92,42,10,30.09,29.95,15,2,15,0.00
2013-8-22,100,86,74,73,43,28,87,27,10,30.12,29.92,10,2,10,0.00
2013-8-23,104,86,74,73,45,28,87,32,9,30.03,29.86,13,1,13,0.00
2013-8-24,97,84,75,50,40,30,41,23,11,30.07,29.95,10,5,10,0.00
2013-8-25,89,80,76,57,47,36,48,33,15,30.15,30.01,15,7,15,0.00
2013-8-26,84,78,74,73,58,43,88,52,25,30.18,30.09,15,4,15,0.00
2013-8-27,101,83,72,75,50,25,96,46,10,30.15,30.01,0,0,0,0.00
2013-8-28,103,86,73,75,45,28,89,32,9,30.12,29.95,0,0,0,0.00
2013-8-29,102,86,76,77,45,28,90,31,10,30.09,29.95,7,0,7,0.00
2013-8-30,100,84,74,77,46,28,92,34,10,30.07,29.89,6,0,6,0.00
2013-8-31,100,85,73,75,45,23,89,33,10,30.01,29.83,10,1,10,0.00
2013-9-1,101,85,72,72,44,28,84,31,10,29.98,29.83,11,2,11,0.00
2013-9-2,100,86,75,72,45,28,86,30,10,30.01,29.83,10,2,10,0.00
2013-9-3,103,83,75,72,52,28,78,42,9,29.98,29.83,3,1,3,0.00
2013-9-4,103,83,74,73,50,28,88,42,9,30.07,29.92,10,2,10,0.00
2013-9-5,100,84,74,73,48,28,88,36,10,30.09,29.98,11,1,11,0.00
2013-9-6,98,84,74,72,46,28,85,34,11,30.09,29.95,13,2,13,0.00
2013-9-7,99,80,73,72,46,27,87,37,10,30.09,29.92,10,1,10,0.00
2013-9-8,98,83,70,73,46,28,94,37,11,30.03,29.89,12,2,12,0.00
2013-9-9,96,82,71,72,45,27,93,35,11,30.03,29.95,15,3,15,0.00
2013-9-10,97,82,71,73,48,28,94,41,11,30.09,29.95,25,4,25,0.00
2013-9-11,98,82,73,73,53,28,93,49,11,30.12,29.95,15,2,15,0.00
2013-9-12,85,75,74,72,70,40,90,83,20,30.03,29.94,0,0,0,0.00
2013-9-20,0,0,0,72,72,72,0,0,100,0.00,40.00,0,0,0,0.00
2013-9-21,78,75,0,77,67,46,98,76,34,29.83,0.00,0,0,0,0.00
2013-9-22,87,75,66,54,29,19,50,20,11,29.86,29.74,15,4,15,0.00
2013-9-23,93,79,65,52,34,19,37,21,12,29.83,29.71,11,3,11,0.00
2013-9-24,98,84,73,81,50,30,91,40,11,29.86,29.74,7,2,7,0.00
2013-9-25,100,81,67,73,47,21,94,44,10,29.89,29.74,0,0,0,0.00
2013-9-26,100,80,65,64,42,23,88,35,10,29.95,29.83,0,0,0,0.00
2013-9-27,94,80,68,70,45,23,90,39,9,30.01,29.89,0,0,0,0.00
2013-9-28,94,82,72,63,40,28,68,25,11,30.07,29.92,0,0,0,0.00
2013-9-29,86,78,74,77,55,32,96,54,16,30.03,29.89,0,0,0,0.00
2013-9-30,83,77,75,81,73,66,98,86,68,29.95,29.83,0,0,0,0.00
2013-10-1,88,79,75,77,63,41,98,68,19,29.98,29.89,0,0,0,0.00
2013-10-2,90,80,74,75,57,30,95,57,13,30.03,29.89,0,0,0,0.00
2013-10-3,90,81,74,77,59,30,94,58,13,30.01,29.86,0,0,0,0.00
2013-11-14,50,38,0,66,14,5,40,33,30,30.45,0.00,0,0,0,0.00
2013-11-15,85,63,50,55,35,21,83,41,11,30.15,29.92,0,0,0,0.00
2013-11-16,81,70,60,68,58,45,96,68,30,30.01,29.83,0,0,0,0.00
2013-11-17,87,78,74,75,65,48,94,69,28,29.95,29.83,0,0,0,0.00
2013-11-18,80,71,59,75,38,14,97,42,12,30.09,29.92,0,0,0,0.00
2013-11-19,73,58,46,23,15,10,35,19,14,30.21,30.07,0,0,0,0.00
2013-11-20,79,59,40,37,19,5,38,22,13,30.12,29.98,0,0,0,0.00
2013-11-21,78,69,61,72,57,37,93,68,31,30.15,30.03,0,0,0,0.00
2013-11-22,77,70,60,73,64,48,98,80,42,30.21,30.09,0,0,0,0.00
2013-11-23,61,53,44,61,39,12,98,63,27,30.45,30.15,0,0,0,0.00
2013-11-24,56,46,39,12,7,3,25,20,17,30.48,30.30,0,0,0,0.00
2013-11-25,44,41,39,45,28,3,98,67,21,30.33,29.98,0,0,0,0.00
2013-11-26,44,43,41,45,41,36,98,92,73,30.27,29.95,0,0,0,0.00
2013-11-27,56,42,31,41,18,0,98,48,16,30.48,30.24,6,0,6,0.00
2013-11-28,61,39,30,30,11,0,78,36,17,30.57,30.42,9,0,9,0.00
2013-11-29,71,43,26,25,11,1,53,31,14,30.60,30.42,8,1,8,0.00
2013-11-30,75,49,31,41,17,10,74,31,13,30.45,30.24,7,0,7,0.00
2013-12-1,74,57,38,48,29,16,89,40,13,30.27,29.95,2,0,2,0.00
2013-12-2,81,68,62,66,47,21,97,55,12,29.95,29.68,0,0,0,0.00
2013-12-3,71,68,0,70,68,64,98,95,94,29.77,29.68,0,0,0,0.00
2013-12-4,79,73,70,75,67,50,98,84,37,29.86,29.71,0,0,0,0.00
2013-12-5,80,70,54,75,61,37,98,76,37,29.98,29.83,0,0,0,0.00
2013-12-6,54,46,39,55,38,21,98,75,45,30.39,29.95,0,0,0,0.00
2013-12-7,39,37,36,23,16,9,55,42,30,30.42,30.30,0,0,0,0.00
2013-12-8,48,41,36,46,34,18,95,77,45,30.33,30.07,0,0,0,0.00
2013-12-9,49,46,42,48,45,37,98,91,67,30.27,30.07,0,0,0,0.00
2013-12-10,56,42,34,43,19,5,97,45,17,30.48,30.27,0,0,0,0.00
2013-12-11,36,34,33,23,18,16,61,51,45,30.42,30.39,0,0,0,0.00
2014-1-1,57,56,0,54,53,23,88,84,83,30.09,0.00,0,0,0,0.00
2014-1-2,85,50,34,59,21,-2,98,40,17,30.48,29.94,4,0,4,0.00